User: anonymous   Login
Location: Hamayl? Da??
(36.7028°N, 30.1716°E)
Time: 06:56:29
(UTC+00:00)
Language:

USA 59 Rocket - Orbit

View from above orbital plane
View from above orbital plane
View from above satellite
View from above satellite

Ground track
Ground track

The orbit data is extracted from the following two-line orbital elements,

1 20682U 90050B   24281.68083708  .00015257  00000-0  11656-2 0  9990
2 20682  63.2984  68.8614 0906246  71.0052 298.6880 13.55119463 19815
Epoch (UTC): 07 October 2024 16:20:24
Eccentricity: 0.0906246
inclination: 63.2984°
perigee height: 380 km
apogee height: 1727 km
right ascension of ascending node: 68.8614°
argument of perigee: 71.0052°
revolutions per day: 13.55119463
mean anomaly at epoch: 298.6880°
orbit number at epoch: 1981

The dashed part of the orbit path shows where the satellite is in the earth's shadow,  

DLR